Voltar ao catálogo

SL-12 R/B(2)

AtivoGEO
NORAD 14333·ROCKET BODY·🇷🇺 Russia

Lançado Aug 25, 1983 de Baikonur Cosmodrome

Loading…

TLE

AtualizadoSource: Space-Track

Época: Sep 14, 2026, 15:01 UTC

1 14333U 83088F   26257.62623666 -.00000186  00000-0  00000-0 0  9996
2 14333   9.6632 312.8988 0014020 150.7830 266.5912  0.97616738117201

Acompanhe SL-12 R/B(2) em tempo real com AllMySat

Download on the App Store